Location: Newark
(51.7378°N, 19.8125°E)
Time: 03:18:56
(UTC+00:00)

Envisat - Pass Details

Date: 13 December 2019
Orbit: 764 x 766 km, 98.1° (Epoch: 23 January)

Event Time Altitude Azimuth Distance (km) Brightness Sun altitude
Rises 15:46:22 0° 146° (SE) 3,225 6.1 -10.9°
Reaches altitude 10° 15:48:44 10° 141° (SE) 2,302 5.3 -11.2°
Maximum altitude 15:53:36 49° 67° (ENE) 993 3.2 -11.9°
Drops below altitude 10° 15:58:29 10° 354° (N) 2,318 5.3 -12.6°
Sets 16:00:52 0° 350° (N) 3,248 6.1 -13.0°
